Time,TemperatureF,DewpointF,PressureIn,WindDirection,WindDirectionDegrees,WindSpeedMPH,WindSpeedGustMPH,Humidity,HourlyPrecipIn,Conditions,Clouds,dailyrainin,SoftwareType,DateUTC
2013-07-15 00:00:00,69.3,67.5,30.35,ESE,121,6.0,6.0,94,0.00,,,1.78,Wunderground v.1.15,2013-07-15 04:00:00,
2013-07-15 00:01:00,69.3,67.5,30.35,ESE,110,5.0,6.0,94,0.00,,,0.00,Wunderground v.1.15,2013-07-15 04:01:00,
2013-07-15 00:02:00,69.2,67.4,30.35,East,93,5.0,6.0,94,0.00,,,0.00,Wunderground v.1.15,2013-07-15 04:02:00,
2013-07-15 00:03:00,69.2,67.4,30.35,East,101,5.0,6.0,94,0.00,,,0.00,Wunderground v.1.15,2013-07-15 04:03:00,
2013-07-15 00:04:00,69.2,67.4,30.35,ESE,117,5.0,6.0,94,0.00,,,0.00,Wunderground v.1.15,2013-07-15 04:04:00,
2013-07-15 00:09:00,69.2,67.4,30.35,SE,136,5.0,6.0,94,0.00,,,0.00,Wunderground v.1.15,2013-07-15 04:09:00,
2013-07-15 00:13:00,69.0,67.2,30.35,East,93,5.0,7.0,94,0.00,,,0.00,Wunderground v.1.15,2013-07-15 04:13:00,
2013-07-15 00:18:00,69.0,67.2,30.35,SE,144,3.0,7.0,94,0.00,,,0.00,Wunderground v.1.15,2013-07-15 04:18:00,
2013-07-15 00:23:00,68.8,67.3,30.35,ESE,106,3.0,5.0,95,0.00,,,0.00,Wunderground v.1.15,2013-07-15 04:23:00,
2013-07-15 00:28:00,68.8,67.3,30.35,ESE,121,3.0,6.0,95,0.00,,,0.00,Wunderground v.1.15,2013-07-15 04:28:00,
2013-07-15 00:34:00,68.9,67.1,30.35,ESE,118,4.0,15.0,94,0.00,,,0.00,Wunderground v.1.15,2013-07-15 04:34:00,
2013-07-15 00:39:00,68.9,67.1,30.35,ESE,112,5.0,15.0,94,0.00,,,0.00,Wunderground v.1.15,2013-07-15 04:39:00,
2013-07-15 00:44:00,69.0,67.2,30.35,SE,135,4.0,15.0,94,0.00,,,0.00,Wunderground v.1.15,2013-07-15 04:44:00,
2013-07-15 00:49:00,69.0,67.2,30.35,East,101,3.0,15.0,94,0.00,,,0.00,Wunderground v.1.15,2013-07-15 04:49:00,
2013-07-15 00:54:00,69.1,67.0,30.35,SSE,157,3.0,15.0,93,0.00,,,0.00,Wunderground v.1.15,2013-07-15 04:54:00,
2013-07-15 01:00:00,69.0,67.2,30.35,SSE,156,1.0,15.0,94,0.00,,,0.00,Wunderground v.1.15,2013-07-15 05:00:00,
2013-07-15 01:05:00,69.0,67.2,30.35,SE,132,1.0,15.0,94,0.00,,,0.00,Wunderground v.1.15,2013-07-15 05:05:00,
2013-07-15 01:10:00,69.0,67.2,30.35,East,93,1.0,1.0,94,0.00,,,0.00,Wunderground v.1.15,2013-07-15 05:10:00,
2013-07-15 01:15:00,69.0,67.2,30.36,East,86,1.0,15.0,94,0.00,,,0.00,Wunderground v.1.15,2013-07-15 05:15:00,
2013-07-15 01:20:00,69.0,67.2,30.36,SE,137,2.0,2.0,94,0.00,,,0.00,Wunderground v.1.15,2013-07-15 05:20:00,
2013-07-15 01:25:00,69.2,67.1,30.36,East,98,3.0,15.0,93,0.00,,,0.00,Wunderground v.1.15,2013-07-15 05:25:00,
2013-07-15 01:31:00,69.3,67.2,30.36,East,98,3.0,3.0,93,0.00,,,0.00,Wunderground v.1.15,2013-07-15 05:31:00,
2013-07-15 01:36:00,69.4,67.6,30.35,SSE,154,2.0,15.0,94,0.00,,,0.00,Wunderground v.1.15,2013-07-15 05:36:00,
2013-07-15 01:41:00,69.4,67.3,30.35,ESE,119,2.0,15.0,93,0.00,,,0.00,Wunderground v.1.15,2013-07-15 05:41:00,
2013-07-15 01:46:00,69.4,67.3,30.35,ESE,111,2.0,15.0,93,0.00,,,0.00,Wunderground v.1.15,2013-07-15 05:46:00,
2013-07-15 01:51:00,69.4,67.3,30.35,ESE,123,3.0,15.0,93,0.00,,,0.00,Wunderground v.1.15,2013-07-15 05:51:00,
2013-07-15 01:56:00,69.4,67.3,30.35,East,98,4.0,15.0,93,0.00,,,0.00,Wunderground v.1.15,2013-07-15 05:56:00,
2013-07-15 02:02:00,69.4,67.6,30.35,SE,126,3.0,15.0,94,0.00,,,0.00,Wunderground v.1.15,2013-07-15 06:02:00,
2013-07-15 02:07:00,69.3,67.5,30.35,ESE,118,3.0,15.0,94,0.00,,,0.00,Wunderground v.1.15,2013-07-15 06:07:00,
2013-07-15 02:12:00,69.3,67.5,30.35,ESE,119,3.0,15.0,94,0.00,,,0.01,Wunderground v.1.15,2013-07-15 06:12:00,
2013-07-15 02:17:00,69.1,67.3,30.35,ESE,105,2.0,15.0,94,0.00,,,0.01,Wunderground v.1.15,2013-07-15 06:17:00,
2013-07-15 02:22:00,69.1,67.3,30.35,East,92,3.0,15.0,94,0.00,,,0.01,Wunderground v.1.15,2013-07-15 06:22:00,
2013-07-15 02:28:00,69.0,67.5,30.35,East,97,3.0,15.0,95,0.00,,,0.01,Wunderground v.1.15,2013-07-15 06:28:00,
2013-07-15 02:33:00,69.0,67.5,30.35,ESE,102,4.0,15.0,95,0.00,,,0.01,Wunderground v.1.15,2013-07-15 06:33:00,
2013-07-15 02:38:00,69.0,67.5,30.34,SE,146,4.0,15.0,95,0.00,,,0.01,Wunderground v.1.15,2013-07-15 06:38:00,
2013-07-15 02:43:00,69.0,67.8,30.34,SSE,148,2.0,15.0,96,0.00,,,0.01,Wunderground v.1.15,2013-07-15 06:43:00,
2013-07-15 02:48:00,68.9,67.7,30.34,SE,133,1.0,15.0,96,0.00,,,0.01,Wunderground v.1.15,2013-07-15 06:48:00,
2013-07-15 02:53:00,69.0,67.5,30.35,ESE,110,4.0,15.0,95,0.00,,,0.01,Wunderground v.1.15,2013-07-15 06:53:00,
2013-07-15 02:59:00,69.0,67.5,30.34,SSE,163,5.0,15.0,95,0.00,,,0.01,Wunderground v.1.15,2013-07-15 06:59:00,
2013-07-15 03:04:00,68.9,67.4,30.35,SSE,157,3.0,15.0,95,0.00,,,0.01,Wunderground v.1.15,2013-07-15 07:04:00,
2013-07-15 03:10:00,68.9,67.4,30.35,ESE,102,3.0,3.0,95,0.00,,,0.01,Wunderground v.1.15,2013-07-15 07:10:00,
2013-07-15 03:15:00,68.8,67.3,30.35,SE,136,2.0,15.0,95,0.00,,,0.01,Wunderground v.1.15,2013-07-15 07:15:00,
2013-07-15 03:20:00,68.8,67.3,30.35,ESE,107,1.0,15.0,95,0.00,,,0.01,Wunderground v.1.15,2013-07-15 07:20:00,
2013-07-15 03:25:00,68.8,67.3,30.35,South,173,2.0,15.0,95,0.00,,,0.01,Wunderground v.1.15,2013-07-15 07:25:00,
2013-07-15 03:31:00,68.8,67.3,30.35,ESE,121,4.0,15.0,95,0.00,,,0.01,Wunderground v.1.15,2013-07-15 07:31:00,
2013-07-15 03:37:00,68.8,67.3,30.35,SE,136,5.0,15.0,95,0.00,,,0.01,Wunderground v.1.15,2013-07-15 07:37:00,
2013-07-15 03:42:00,68.7,66.9,30.35,ESE,115,3.0,15.0,94,0.00,,,0.01,Wunderground v.1.15,2013-07-15 07:42:00,
2013-07-15 03:47:00,68.6,67.1,30.35,ESE,109,3.0,15.0,95,0.00,,,0.01,Wunderground v.1.15,2013-07-15 07:47:00,
2013-07-15 03:52:00,68.4,66.9,30.35,ESE,115,3.0,15.0,95,0.00,,,0.01,Wunderground v.1.15,2013-07-15 07:52:00,
2013-07-15 03:57:00,68.4,66.9,30.35,ESE,112,3.0,15.0,95,0.00,,,0.01,Wunderground v.1.15,2013-07-15 07:57:00,
2013-07-15 04:03:00,68.3,67.1,30.35,East,91,4.0,15.0,96,0.00,,,0.01,Wunderground v.1.15,2013-07-15 08:03:00,
2013-07-15 04:08:00,68.3,67.1,30.35,SSE,151,4.0,15.0,96,0.00,,,0.01,Wunderground v.1.15,2013-07-15 08:08:00,
2013-07-15 04:13:00,68.4,67.2,30.35,ESE,107,4.0,15.0,96,0.00,,,0.01,Wunderground v.1.15,2013-07-15 08:13:00,
2013-07-15 04:18:00,68.4,67.2,30.34,East,91,4.0,15.0,96,0.00,,,0.01,Wunderground v.1.15,2013-07-15 08:18:00,
2013-07-15 04:23:00,68.5,67.3,30.35,ESE,110,4.0,15.0,96,0.00,,,0.01,Wunderground v.1.15,2013-07-15 08:23:00,
2013-07-15 04:28:00,68.4,67.2,30.35,ESE,123,3.0,15.0,96,0.00,,,0.01,Wunderground v.1.15,2013-07-15 08:28:00,
2013-07-15 04:34:00,68.4,67.2,30.35,ESE,115,3.0,15.0,96,0.00,,,0.01,Wunderground v.1.15,2013-07-15 08:34:00,
2013-07-15 04:39:00,68.4,67.2,30.35,SE,142,2.0,15.0,96,0.00,,,0.01,Wunderground v.1.15,2013-07-15 08:39:00,
2013-07-15 04:44:00,68.4,67.2,30.35,ESE,117,1.0,15.0,96,0.00,,,0.01,Wunderground v.1.15,2013-07-15 08:44:00,
2013-07-15 04:49:00,68.5,67.3,30.35,East,100,2.0,15.0,96,0.00,,,0.01,Wunderground v.1.15,2013-07-15 08:49:00,
2013-07-15 04:54:00,68.6,67.1,30.35,ESE,103,3.0,15.0,95,0.00,,,0.01,Wunderground v.1.15,2013-07-15 08:54:00,
2013-07-15 04:59:00,68.6,67.1,30.35,SE,128,1.0,15.0,95,0.00,,,0.01,Wunderground v.1.15,2013-07-15 08:59:00,
2013-07-15 05:05:00,68.7,67.2,30.35,ESE,118,1.0,15.0,95,0.00,,,0.01,Wunderground v.1.15,2013-07-15 09:05:00,
2013-07-15 05:10:00,68.7,67.2,30.35,SE,132,1.0,1.0,95,0.00,,,0.01,Wunderground v.1.15,2013-07-15 09:10:00,
2013-07-15 05:15:00,68.7,67.5,30.35,ESE,122,1.0,15.0,96,0.00,,,0.01,Wunderground v.1.15,2013-07-15 09:15:00,
2013-07-15 05:21:00,68.7,67.2,30.35,East,94,2.0,15.0,95,0.00,,,0.01,Wunderground v.1.15,2013-07-15 09:21:00,
2013-07-15 05:26:00,68.6,67.1,30.35,SE,129,2.0,15.0,95,0.00,,,0.01,Wunderground v.1.15,2013-07-15 09:26:00,
2013-07-15 05:31:00,68.6,67.1,30.35,East,101,2.0,15.0,95,0.00,,,0.01,Wunderground v.1.15,2013-07-15 09:31:00,
2013-07-15 05:37:00,68.6,67.1,30.35,East,92,3.0,15.0,95,0.00,,,0.01,Wunderground v.1.15,2013-07-15 09:37:00,
2013-07-15 05:42:00,68.5,67.3,30.35,ESE,121,2.0,15.0,96,0.00,,,0.01,Wunderground v.1.15,2013-07-15 09:42:00,
2013-07-15 05:48:00,68.4,67.2,30.35,ESE,105,2.0,15.0,96,0.00,,,0.01,Wunderground v.1.15,2013-07-15 09:48:00,
2013-07-15 05:53:00,68.4,67.2,30.35,East,90,2.0,15.0,96,0.00,,,0.01,Wunderground v.1.15,2013-07-15 09:53:00,
2013-07-15 05:58:00,68.4,67.2,30.35,ESE,108,3.0,15.0,96,0.00,,,0.01,Wunderground v.1.15,2013-07-15 09:58:00,
2013-07-15 06:03:00,68.3,67.1,30.35,ESE,105,3.0,15.0,96,0.00,,,0.01,Wunderground v.1.15,2013-07-15 10:03:00,
2013-07-15 06:08:00,68.3,67.1,30.36,SSE,159,3.0,15.0,96,0.00,,,0.01,Wunderground v.1.15,2013-07-15 10:08:00,
2013-07-15 06:13:00,68.2,67.0,30.36,ESE,117,2.0,15.0,96,0.00,,,0.01,Wunderground v.1.15,2013-07-15 10:13:00,
2013-07-15 06:19:00,68.1,66.9,30.36,SE,140,1.0,15.0,96,0.00,,,0.01,Wunderground v.1.15,2013-07-15 10:19:00,
2013-07-15 06:24:00,68.1,66.9,30.36,SE,130,3.0,15.0,96,0.00,,,0.01,Wunderground v.1.15,2013-07-15 10:24:00,
2013-07-15 06:29:00,68.1,66.9,30.36,ESE,108,3.0,15.0,96,0.00,,,0.01,Wunderground v.1.15,2013-07-15 10:29:00,
2013-07-15 06:34:00,68.1,66.9,30.36,ESE,106,3.0,15.0,96,0.00,,,0.01,Wunderground v.1.15,2013-07-15 10:34:00,
2013-07-15 06:40:00,68.1,66.9,30.36,ESE,106,3.0,15.0,96,0.00,,,0.01,Wunderground v.1.15,2013-07-15 10:40:00,
2013-07-15 06:45:00,68.1,66.9,30.37,ESE,117,4.0,15.0,96,0.00,,,0.01,Wunderground v.1.15,2013-07-15 10:45:00,
2013-07-15 06:50:00,68.1,66.6,30.37,East,96,5.0,15.0,95,0.00,,,0.01,Wunderground v.1.15,2013-07-15 10:50:00,
2013-07-15 06:55:00,68.1,66.6,30.37,ESE,110,5.0,15.0,95,0.00,,,0.01,Wunderground v.1.15,2013-07-15 10:55:00,
2013-07-15 07:00:00,68.2,66.7,30.37,ESE,111,5.0,15.0,95,0.00,,,0.01,Wunderground v.1.15,2013-07-15 11:00:00,
2013-07-15 07:06:00,68.2,66.7,30.37,ESE,119,6.0,15.0,95,0.00,,,0.01,Wunderground v.1.15,2013-07-15 11:06:00,
2013-07-15 07:12:00,68.3,66.8,30.37,ESE,113,4.0,15.0,95,0.00,,,0.01,Wunderground v.1.15,2013-07-15 11:12:00,
2013-07-15 07:17:00,68.4,66.9,30.37,ESE,115,4.0,15.0,95,0.00,,,0.01,Wunderground v.1.15,2013-07-15 11:17:00,
2013-07-15 07:22:00,68.4,66.9,30.37,East,90,4.0,15.0,95,0.00,,,0.01,Wunderground v.1.15,2013-07-15 11:22:00,
2013-07-15 07:28:00,68.5,67.0,30.37,East,101,4.0,15.0,95,0.00,,,0.01,Wunderground v.1.15,2013-07-15 11:28:00,
2013-07-15 07:33:00,68.6,67.1,30.38,ESE,117,4.0,15.0,95,0.00,,,0.01,Wunderground v.1.15,2013-07-15 11:33:00,
2013-07-15 07:38:00,68.7,67.2,30.38,ESE,109,4.0,15.0,95,0.00,,,0.01,Wunderground v.1.15,2013-07-15 11:38:00,
2013-07-15 07:43:00,68.6,66.8,30.38,ESE,109,5.0,15.0,94,0.00,,,0.01,Wunderground v.1.15,2013-07-15 11:43:00,
2013-07-15 07:48:00,68.7,66.9,30.38,East,100,6.0,15.0,94,0.00,,,0.01,Wunderground v.1.15,2013-07-15 11:48:00,
2013-07-15 07:53:00,68.7,66.9,30.38,East,91,5.0,15.0,94,0.00,,,0.01,Wunderground v.1.15,2013-07-15 11:53:00,
2013-07-15 07:59:00,68.7,66.9,30.38,SE,142,5.0,15.0,94,0.00,,,0.01,Wunderground v.1.15,2013-07-15 11:59:00,
2013-07-15 08:04:00,68.8,67.0,30.38,East,92,5.0,15.0,94,0.00,,,0.01,Wunderground v.1.15,2013-07-15 12:04:00,
2013-07-15 08:09:00,68.8,67.0,30.38,ESE,103,5.0,15.0,94,0.00,,,0.01,Wunderground v.1.15,2013-07-15 12:09:00,
2013-07-15 08:14:00,68.8,67.0,30.38,ESE,113,6.0,15.0,94,0.00,,,0.01,Wunderground v.1.15,2013-07-15 12:14:00,
2013-07-15 08:20:00,69.0,67.2,30.38,ESE,111,5.0,15.0,94,0.00,,,0.01,Wunderground v.1.15,2013-07-15 12:20:00,
2013-07-15 08:25:00,69.2,67.4,30.39,SSE,159,4.0,15.0,94,0.00,,,0.01,Wunderground v.1.15,2013-07-15 12:25:00,
2013-07-15 08:30:00,69.3,67.2,30.38,East,99,4.0,15.0,93,0.00,,,0.01,Wunderground v.1.15,2013-07-15 12:30:00,
2013-07-15 08:36:00,69.6,67.2,30.38,ENE,77,5.0,15.0,92,0.00,,,0.01,Wunderground v.1.15,2013-07-15 12:36:00,
2013-07-15 08:41:00,70.1,67.7,30.38,East,97,5.0,15.0,92,0.00,,,0.01,Wunderground v.1.15,2013-07-15 12:41:00,
2013-07-15 08:46:00,70.3,67.5,30.38,ESE,121,5.0,15.0,91,0.00,,,0.01,Wunderground v.1.15,2013-07-15 12:46:00,
2013-07-15 08:51:00,70.1,67.3,30.39,East,81,5.0,15.0,91,0.00,,,0.01,Wunderground v.1.15,2013-07-15 12:51:00,
2013-07-15 08:56:00,69.9,66.8,30.39,East,92,6.0,15.0,90,0.00,,,0.01,Wunderground v.1.15,2013-07-15 12:56:00,
2013-07-15 09:01:00,70.2,67.4,30.39,East,80,5.0,15.0,91,0.00,,,0.01,Wunderground v.1.15,2013-07-15 13:01:00,
2013-07-15 09:07:00,70.2,67.1,30.39,East,84,5.0,15.0,90,0.00,,,0.01,Wunderground v.1.15,2013-07-15 13:07:00,
2013-07-15 09:12:00,70.5,67.4,30.39,SSE,159,5.0,15.0,90,0.00,,,0.01,Wunderground v.1.15,2013-07-15 13:12:00,
2013-07-15 09:17:00,70.6,67.5,30.39,East,89,5.0,15.0,90,0.00,,,0.01,Wunderground v.1.15,2013-07-15 13:17:00,
2013-07-15 09:22:00,71.1,67.7,30.39,SE,140,5.0,15.0,89,0.00,,,0.01,Wunderground v.1.15,2013-07-15 13:22:00,
2013-07-15 09:27:00,71.1,67.0,30.39,East,90,5.0,15.0,87,0.00,,,0.01,Wunderground v.1.15,2013-07-15 13:27:00,
2013-07-15 09:33:00,71.3,67.2,30.39,ESE,111,5.0,15.0,87,0.00,,,0.01,Wunderground v.1.15,2013-07-15 13:33:00,
2013-07-15 09:38:00,71.4,67.7,30.39,NE,41,5.0,15.0,88,0.00,,,0.01,Wunderground v.1.15,2013-07-15 13:38:00,
2013-07-15 09:43:00,71.4,67.7,30.39,ESE,103,3.0,15.0,88,0.00,,,0.01,Wunderground v.1.15,2013-07-15 13:43:00,
2013-07-15 09:48:00,71.7,67.6,30.39,East,100,3.0,15.0,87,0.00,,,0.01,Wunderground v.1.15,2013-07-15 13:48:00,
2013-07-15 09:53:00,71.6,67.2,30.39,ESE,111,5.0,15.0,86,0.00,,,0.01,Wunderground v.1.15,2013-07-15 13:53:00,
2013-07-15 09:58:00,71.3,67.2,30.39,ESE,113,5.0,15.0,87,0.00,,,0.01,Wunderground v.1.15,2013-07-15 13:58:00,
2013-07-15 10:04:00,71.3,67.6,30.39,East,93,4.0,15.0,88,0.00,,,0.01,Wunderground v.1.15,2013-07-15 14:04:00,
2013-07-15 10:09:00,71.7,67.6,30.39,ESE,114,4.0,15.0,87,0.00,,,0.01,Wunderground v.1.15,2013-07-15 14:09:00,
2013-07-15 10:15:00,72.0,67.2,30.39,ENE,63,5.0,15.0,85,0.00,,,0.01,Wunderground v.1.15,2013-07-15 14:15:00,
2013-07-15 10:20:00,72.1,67.7,30.39,East,93,4.0,15.0,86,0.00,,,0.01,Wunderground v.1.15,2013-07-15 14:20:00,
2013-07-15 10:25:00,72.0,67.2,30.39,East,92,5.0,15.0,85,0.00,,,0.01,Wunderground v.1.15,2013-07-15 14:25:00,
2013-07-15 10:30:00,71.9,67.1,30.39,ESE,109,6.0,15.0,85,0.00,,,0.01,Wunderground v.1.15,2013-07-15 14:30:00,
2013-07-15 10:35:00,71.9,67.1,30.39,ESE,103,7.0,15.0,85,0.00,,,0.01,Wunderground v.1.15,2013-07-15 14:35:00,
2013-07-15 10:41:00,72.1,67.3,30.39,ESE,109,6.0,15.0,85,0.00,,,0.01,Wunderground v.1.15,2013-07-15 14:41:00,
2013-07-15 10:46:00,72.5,67.0,30.40,ESE,110,6.0,15.0,83,0.00,,,0.01,Wunderground v.1.15,2013-07-15 14:46:00,
2013-07-15 10:51:00,72.5,67.0,30.39,SSE,152,6.0,15.0,83,0.00,,,0.01,Wunderground v.1.15,2013-07-15 14:51:00,
2013-07-15 10:56:00,72.9,68.1,30.40,East,86,4.0,15.0,85,0.00,,,0.01,Wunderground v.1.15,2013-07-15 14:56:00,
2013-07-15 11:01:00,72.9,67.4,30.40,ESE,115,4.0,15.0,83,0.00,,,0.01,Wunderground v.1.15,2013-07-15 15:01:00,
2013-07-15 11:06:00,72.8,67.3,30.40,East,86,6.0,15.0,83,0.00,,,0.01,Wunderground v.1.15,2013-07-15 15:06:00,
2013-07-15 11:12:00,73.0,67.5,30.40,NE,49,6.0,15.0,83,0.00,,,0.01,Wunderground v.1.15,2013-07-15 15:12:00,
2013-07-15 11:17:00,73.2,68.4,30.40,ESE,113,4.0,15.0,85,0.00,,,0.01,Wunderground v.1.15,2013-07-15 15:17:00,
2013-07-15 11:23:00,73.6,68.1,30.40,SSE,160,3.0,15.0,83,0.00,,,0.01,Wunderground v.1.15,2013-07-15 15:23:00,
2013-07-15 11:28:00,73.7,68.6,30.40,SSE,163,2.0,15.0,84,0.00,,,0.01,Wunderground v.1.15,2013-07-15 15:28:00,
2013-07-15 11:33:00,73.9,68.1,30.40,East,86,2.0,10.0,82,0.00,,,0.01,Wunderground v.1.15,2013-07-15 15:33:00,
2013-07-15 11:39:00,73.6,67.4,30.40,East,101,6.0,15.0,81,0.00,,,0.01,Wunderground v.1.15,2013-07-15 15:39:00,
2013-07-15 11:46:00,73.5,67.7,30.40,SSE,165,4.0,15.0,82,0.00,,,0.01,Wunderground v.1.15,2013-07-15 15:46:00,
2013-07-15 11:51:00,73.4,68.3,30.40,SSE,150,4.0,4.0,84,0.00,,,0.01,Wunderground v.1.15,2013-07-15 15:51:00,
2013-07-15 11:56:00,73.4,67.9,30.40,ESE,115,3.0,15.0,83,0.00,,,0.01,Wunderground v.1.15,2013-07-15 15:56:00,
2013-07-15 12:01:00,73.5,68.4,30.40,SSE,163,5.0,15.0,84,0.00,,,0.01,Wunderground v.1.15,2013-07-15 16:01:00,
2013-07-15 12:07:00,74.2,68.3,30.40,ESE,115,5.0,15.0,82,0.00,,,0.01,Wunderground v.1.15,2013-07-15 16:07:00,
2013-07-15 12:12:00,74.1,68.3,30.40,ESE,103,3.0,15.0,82,0.00,,,0.01,Wunderground v.1.15,2013-07-15 16:12:00,
2013-07-15 12:18:00,73.4,67.9,30.40,East,101,5.0,15.0,83,0.00,,,0.01,Wunderground v.1.15,2013-07-15 16:18:00,
2013-07-15 12:23:00,73.0,67.9,30.40,East,88,7.0,15.0,84,0.00,,,0.01,Wunderground v.1.15,2013-07-15 16:23:00,
2013-07-15 12:29:00,73.7,68.6,30.40,ESE,105,6.0,15.0,84,0.00,,,0.01,Wunderground v.1.15,2013-07-15 16:29:00,
2013-07-15 12:34:00,74.2,68.3,30.40,East,82,5.0,15.0,82,0.00,,,0.01,Wunderground v.1.15,2013-07-15 16:34:00,
2013-07-15 12:39:00,74.8,68.2,30.40,East,101,5.0,15.0,80,0.00,,,0.01,Wunderground v.1.15,2013-07-15 16:39:00,
2013-07-15 12:44:00,74.8,67.8,30.39,East,84,7.0,15.0,79,0.00,,,0.01,Wunderground v.1.15,2013-07-15 16:44:00,
2013-07-15 12:49:00,74.1,68.3,30.40,East,94,8.0,15.0,82,0.00,,,0.01,Wunderground v.1.15,2013-07-15 16:49:00,
2013-07-15 12:54:00,74.2,68.7,30.39,East,87,8.0,15.0,83,0.00,,,0.01,Wunderground v.1.15,2013-07-15 16:54:00,
2013-07-15 13:00:00,74.5,68.3,30.39,East,93,5.0,15.0,81,0.00,,,0.01,Wunderground v.1.15,2013-07-15 17:00:00,
2013-07-15 13:05:00,74.7,68.5,30.39,East,95,5.0,15.0,81,0.00,,,0.01,Wunderground v.1.15,2013-07-15 17:05:00,
2013-07-15 13:10:00,74.6,67.7,30.39,SSE,148,5.0,15.0,79,0.00,,,0.01,Wunderground v.1.15,2013-07-15 17:10:00,
2013-07-15 13:15:00,74.6,68.7,30.39,ESE,110,5.0,15.0,82,0.00,,,0.01,Wunderground v.1.15,2013-07-15 17:15:00,
2013-07-15 13:21:00,74.8,69.3,30.39,SSE,150,2.0,15.0,83,0.00,,,0.01,Wunderground v.1.15,2013-07-15 17:21:00,
2013-07-15 13:26:00,75.5,69.6,30.39,East,87,3.0,15.0,82,0.00,,,0.01,Wunderground v.1.15,2013-07-15 17:26:00,
2013-07-15 13:31:00,75.2,68.2,30.39,East,80,6.0,15.0,79,0.00,,,0.01,Wunderground v.1.15,2013-07-15 17:31:00,
2013-07-15 13:37:00,75.7,68.7,30.38,ESE,110,7.0,15.0,79,0.00,,,0.01,Wunderground v.1.15,2013-07-15 17:37:00,
2013-07-15 13:42:00,76.3,68.9,30.38,ESE,107,5.0,15.0,78,0.00,,,0.01,Wunderground v.1.15,2013-07-15 17:42:00,
2013-07-15 13:48:00,76.4,69.4,30.38,East,86,5.0,15.0,79,0.00,,,0.01,Wunderground v.1.15,2013-07-15 17:48:00,
2013-07-15 13:53:00,75.6,68.3,30.38,ESE,121,5.0,15.0,78,0.00,,,0.01,Wunderground v.1.15,2013-07-15 17:53:00,
2013-07-15 13:59:00,75.0,68.0,30.38,ESE,109,6.0,15.0,79,0.00,,,0.01,Wunderground v.1.15,2013-07-15 17:59:00,
2013-07-15 14:05:00,75.2,68.2,30.38,East,92,5.0,15.0,79,0.00,,,0.01,Wunderground v.1.15,2013-07-15 18:05:00,
2013-07-15 14:10:00,75.4,67.7,30.38,ESE,105,6.0,15.0,77,0.00,,,0.01,Wunderground v.1.15,2013-07-15 18:10:00,
2013-07-15 14:15:00,74.5,67.9,30.38,SE,133,8.0,15.0,80,0.00,,,0.01,Wunderground v.1.15,2013-07-15 18:15:00,
2013-07-15 14:20:00,74.7,67.8,30.37,ESE,115,7.0,7.0,79,0.00,,,0.01,Wunderground v.1.15,2013-07-15 18:20:00,
2013-07-15 14:25:00,75.7,68.0,30.37,East,86,5.0,15.0,77,0.00,,,0.01,Wunderground v.1.15,2013-07-15 18:25:00,
2013-07-15 14:30:00,76.7,68.6,30.37,ESE,103,5.0,15.0,76,0.00,,,0.01,Wunderground v.1.15,2013-07-15 18:30:00,
2013-07-15 14:35:00,76.1,68.7,30.37,East,97,7.0,15.0,78,0.00,,,0.01,Wunderground v.1.15,2013-07-15 18:35:00,
2013-07-15 14:41:00,75.3,68.3,30.37,East,84,9.0,15.0,79,0.00,,,0.01,Wunderground v.1.15,2013-07-15 18:41:00,
2013-07-15 14:48:00,75.8,68.8,30.36,SE,134,7.0,15.0,79,0.00,,,0.01,Wunderground v.1.15,2013-07-15 18:48:00,
2013-07-15 14:53:00,76.4,68.7,30.36,SE,144,4.0,15.0,77,0.00,,,0.01,Wunderground v.1.15,2013-07-15 18:53:00,
2013-07-15 14:58:00,77.0,69.2,30.36,East,98,4.0,15.0,77,0.00,,,0.01,Wunderground v.1.15,2013-07-15 18:58:00,
2013-07-15 15:03:00,76.4,68.7,30.36,ESE,105,7.0,15.0,77,0.00,,,0.01,Wunderground v.1.15,2013-07-15 19:03:00,
2013-07-15 15:09:00,75.9,68.5,30.36,NE,55,8.0,15.0,78,0.00,,,0.01,Wunderground v.1.15,2013-07-15 19:09:00,
2013-07-15 15:14:00,76.4,68.7,30.36,East,92,8.0,15.0,77,0.00,,,0.01,Wunderground v.1.15,2013-07-15 19:14:00,
2013-07-15 15:19:00,76.5,68.0,30.36,ENE,63,8.0,15.0,75,0.00,,,0.01,Wunderground v.1.15,2013-07-15 19:19:00,
2013-07-15 15:25:00,76.7,68.6,30.35,ESE,110,7.0,15.0,76,0.00,,,0.01,Wunderground v.1.15,2013-07-15 19:25:00,
2013-07-15 15:30:00,77.2,67.9,30.35,East,96,6.0,15.0,73,0.00,,,0.01,Wunderground v.1.15,2013-07-15 19:30:00,
2013-07-15 15:36:00,77.3,66.7,30.35,East,99,6.0,15.0,70,0.00,,,0.01,Wunderground v.1.15,2013-07-15 19:36:00,
2013-07-15 15:41:00,77.6,65.8,30.35,SE,134,7.0,15.0,67,0.00,,,0.01,Wunderground v.1.15,2013-07-15 19:41:00,
2013-07-15 15:46:00,77.7,65.4,30.35,East,91,8.0,15.0,66,0.00,,,0.01,Wunderground v.1.15,2013-07-15 19:46:00,
2013-07-15 15:52:00,77.7,67.1,30.34,East,91,8.0,15.0,70,0.00,,,0.01,Wunderground v.1.15,2013-07-15 19:52:00,
2013-07-15 15:57:00,77.9,67.3,30.35,ESE,103,7.0,15.0,70,0.00,,,0.01,Wunderground v.1.15,2013-07-15 19:57:00,
2013-07-15 16:02:00,78.0,67.4,30.34,ENE,65,7.0,15.0,70,0.00,,,0.01,Wunderground v.1.15,2013-07-15 20:02:00,
2013-07-15 16:07:00,78.2,68.4,30.34,East,91,7.0,15.0,72,0.00,,,0.01,Wunderground v.1.15,2013-07-15 20:07:00,
2013-07-15 16:12:00,78.0,67.4,30.34,East,99,8.0,15.0,70,0.00,,,0.01,Wunderground v.1.15,2013-07-15 20:12:00,
2013-07-15 16:18:00,77.4,67.7,30.34,ENE,57,8.0,15.0,72,0.00,,,0.01,Wunderground v.1.15,2013-07-15 20:18:00,
2013-07-15 16:23:00,77.1,66.6,30.34,East,85,8.0,15.0,70,0.00,,,0.01,Wunderground v.1.15,2013-07-15 20:23:00,
2013-07-15 16:29:00,77.6,67.0,30.34,NE,53,4.0,15.0,70,0.00,,,0.01,Wunderground v.1.15,2013-07-15 20:29:00,
2013-07-15 16:35:00,78.4,68.6,30.34,ESE,103,5.0,15.0,72,0.00,,,0.01,Wunderground v.1.15,2013-07-15 20:35:00,
2013-07-15 16:40:00,77.6,68.3,30.34,ENE,78,8.0,15.0,73,0.00,,,0.01,Wunderground v.1.15,2013-07-15 20:40:00,
2013-07-15 16:46:00,77.0,67.3,30.33,ESE,105,9.0,15.0,72,0.00,,,0.01,Wunderground v.1.15,2013-07-15 20:46:00,
2013-07-15 16:52:00,77.3,68.0,30.33,East,84,6.0,15.0,73,0.00,,,0.01,Wunderground v.1.15,2013-07-15 20:52:00,
2013-07-15 16:57:00,78.0,68.2,30.33,ENE,64,5.0,15.0,72,0.00,,,0.01,Wunderground v.1.15,2013-07-15 20:57:00,
2013-07-15 17:02:00,78.5,68.3,30.33,ENE,61,6.0,15.0,71,0.00,,,0.01,Wunderground v.1.15,2013-07-15 21:02:00,
2013-07-15 17:08:00,77.5,66.9,30.33,ESE,114,9.0,15.0,70,0.00,,,0.01,Wunderground v.1.15,2013-07-15 21:08:00,
2013-07-15 17:13:00,77.1,67.8,30.33,East,98,7.0,15.0,73,0.00,,,0.01,Wunderground v.1.15,2013-07-15 21:13:00,
2013-07-15 17:18:00,77.5,67.4,30.33,NE,52,6.0,15.0,71,0.00,,,0.01,Wunderground v.1.15,2013-07-15 21:18:00,
2013-07-15 17:24:00,78.1,67.5,30.33,East,95,5.0,15.0,70,0.00,,,0.01,Wunderground v.1.15,2013-07-15 21:24:00,
2013-07-15 17:29:00,78.1,67.1,30.33,ESE,109,6.0,15.0,69,0.00,,,0.01,Wunderground v.1.15,2013-07-15 21:29:00,
2013-07-15 17:34:00,77.7,67.1,30.33,East,95,7.0,15.0,70,0.00,,,0.01,Wunderground v.1.15,2013-07-15 21:34:00,
2013-07-15 17:39:00,78.0,68.6,30.33,ESE,103,5.0,15.0,73,0.00,,,0.01,Wunderground v.1.15,2013-07-15 21:39:00,
2013-07-15 17:44:00,78.2,68.0,30.33,ENE,72,4.0,15.0,71,0.00,,,0.01,Wunderground v.1.15,2013-07-15 21:44:00,
2013-07-15 17:49:00,78.6,68.0,30.33,East,83,4.0,15.0,70,0.00,,,0.01,Wunderground v.1.15,2013-07-15 21:49:00,
2013-07-15 17:55:00,78.6,67.6,30.33,ENE,63,5.0,15.0,69,0.00,,,0.01,Wunderground v.1.15,2013-07-15 21:55:00,
2013-07-15 18:01:00,78.0,67.4,30.33,ESE,111,6.0,15.0,70,0.00,,,0.01,Wunderground v.1.15,2013-07-15 22:01:00,
2013-07-15 18:07:00,78.3,68.5,30.33,SE,134,4.0,15.0,72,0.00,,,0.01,Wunderground v.1.15,2013-07-15 22:07:00,
2013-07-15 18:12:00,78.5,67.5,30.33,East,98,4.0,15.0,69,0.00,,,0.01,Wunderground v.1.15,2013-07-15 22:12:00,
2013-07-15 18:18:00,78.4,68.2,30.32,ESE,107,7.0,15.0,71,0.00,,,0.01,Wunderground v.1.15,2013-07-15 22:18:00,
2013-07-15 18:23:00,78.0,67.4,30.33,NE,55,7.0,15.0,70,0.00,,,0.01,Wunderground v.1.15,2013-07-15 22:23:00,
2013-07-15 18:29:00,77.3,67.2,30.33,ENE,60,7.0,15.0,71,0.00,,,0.01,Wunderground v.1.15,2013-07-15 22:29:00,
2013-07-15 18:34:00,77.4,67.3,30.32,East,88,7.0,15.0,71,0.00,,,0.01,Wunderground v.1.15,2013-07-15 22:34:00,
2013-07-15 18:39:00,77.4,67.3,30.32,ENE,71,7.0,15.0,71,0.00,,,0.01,Wunderground v.1.15,2013-07-15 22:39:00,
2013-07-15 18:45:00,77.5,66.9,30.33,East,94,6.0,15.0,70,0.00,,,0.01,Wunderground v.1.15,2013-07-15 22:45:00,
2013-07-15 18:50:00,77.5,67.4,30.33,East,93,6.0,6.0,71,0.00,,,0.01,Wunderground v.1.15,2013-07-15 22:50:00,
2013-07-15 18:55:00,77.4,67.7,30.33,East,87,6.0,15.0,72,0.00,,,0.01,Wunderground v.1.15,2013-07-15 22:55:00,
2013-07-15 19:00:00,77.4,68.1,30.33,ESE,107,5.0,15.0,73,0.00,,,0.01,Wunderground v.1.15,2013-07-15 23:00:00,
2013-07-15 19:05:00,77.3,67.6,30.33,East,88,6.0,15.0,72,0.00,,,0.01,Wunderground v.1.15,2013-07-15 23:05:00,
2013-07-15 19:10:00,77.2,67.9,30.33,ESE,105,7.0,15.0,73,0.00,,,0.01,Wunderground v.1.15,2013-07-15 23:10:00,
2013-07-15 19:15:00,77.2,67.9,30.33,East,95,6.0,15.0,73,0.00,,,0.01,Wunderground v.1.15,2013-07-15 23:15:00,
2013-07-15 19:21:00,77.2,67.9,30.33,East,98,6.0,15.0,73,0.00,,,0.01,Wunderground v.1.15,2013-07-15 23:21:00,
2013-07-15 19:26:00,77.0,68.1,30.33,East,82,6.0,15.0,74,0.00,,,0.01,Wunderground v.1.15,2013-07-15 23:26:00,
2013-07-15 19:31:00,76.7,68.2,30.33,East,101,6.0,15.0,75,0.00,,,0.01,Wunderground v.1.15,2013-07-15 23:31:00,
2013-07-15 19:37:00,76.4,68.7,30.33,East,96,5.0,15.0,77,0.00,,,0.01,Wunderground v.1.15,2013-07-15 23:37:00,
2013-07-15 19:42:00,76.2,68.1,30.33,East,88,4.0,15.0,76,0.00,,,0.01,Wunderground v.1.15,2013-07-15 23:42:00,
2013-07-15 19:48:00,76.0,67.9,30.33,East,98,3.0,15.0,76,0.00,,,0.01,Wunderground v.1.15,2013-07-15 23:48:00,
2013-07-15 19:54:00,75.8,67.7,30.33,East,89,4.0,15.0,76,0.00,,,0.01,Wunderground v.1.15,2013-07-15 23:54:00,
2013-07-15 20:00:00,75.8,68.1,30.33,East,88,3.0,3.0,77,0.00,,,0.01,Wunderground v.1.15,2013-07-16 00:00:00,
2013-07-15 20:06:00,75.8,68.1,30.33,East,88,1.0,15.0,77,0.00,,,0.01,Wunderground v.1.15,2013-07-16 00:06:00,
2013-07-15 20:12:00,75.8,68.4,30.33,ESE,107,1.0,15.0,78,0.00,,,0.01,Wunderground v.1.15,2013-07-16 00:12:00,
2013-07-15 20:17:00,75.6,68.6,30.33,ESE,107,2.0,15.0,79,0.00,,,0.01,Wunderground v.1.15,2013-07-16 00:17:00,
2013-07-15 20:22:00,75.2,68.6,30.33,East,90,2.0,15.0,80,0.00,,,0.01,Wunderground v.1.15,2013-07-16 00:22:00,
2013-07-15 20:28:00,74.9,68.3,30.33,ENE,66,2.0,15.0,80,0.00,,,0.01,Wunderground v.1.15,2013-07-16 00:28:00,
2013-07-15 20:34:00,74.8,67.8,30.32,ENE,69,3.0,15.0,79,0.00,,,0.01,Wunderground v.1.15,2013-07-16 00:34:00,
2013-07-15 20:39:00,74.6,68.0,30.33,ENE,66,3.0,15.0,80,0.00,,,0.01,Wunderground v.1.15,2013-07-16 00:39:00,
2013-07-15 20:44:00,74.3,67.7,30.33,ENE,74,3.0,15.0,80,0.00,,,0.01,Wunderground v.1.15,2013-07-16 00:44:00,
2013-07-15 20:49:00,74.0,67.8,30.33,ESE,105,3.0,15.0,81,0.00,,,0.01,Wunderground v.1.15,2013-07-16 00:49:00,
2013-07-15 20:54:00,73.7,67.9,30.33,East,88,2.0,15.0,82,0.00,,,0.01,Wunderground v.1.15,2013-07-16 00:54:00,
2013-07-15 21:00:00,73.4,68.3,30.33,East,88,1.0,1.0,84,0.00,,,0.01,Wunderground v.1.15,2013-07-16 01:00:00,
2013-07-15 21:05:00,73.1,68.0,30.34,East,88,0.0,15.0,84,0.00,,,0.01,Wunderground v.1.15,2013-07-16 01:05:00,
2013-07-15 21:10:00,72.8,68.0,30.34,East,88,0.0,15.0,85,0.00,,,0.01,Wunderground v.1.15,2013-07-16 01:10:00,
2013-07-15 21:16:00,72.3,68.2,30.34,East,88,0.0,15.0,87,0.00,,,0.01,Wunderground v.1.15,2013-07-16 01:16:00,
2013-07-15 21:21:00,71.8,68.1,30.34,East,88,0.0,15.0,88,0.00,,,0.01,Wunderground v.1.15,2013-07-16 01:21:00,
2013-07-15 21:27:00,71.3,68.2,30.33,East,88,0.0,15.0,90,0.00,,,0.01,Wunderground v.1.15,2013-07-16 01:27:00,
2013-07-15 21:32:00,71.1,67.7,30.34,ENE,67,0.0,15.0,89,0.00,,,0.01,Wunderground v.1.15,2013-07-16 01:32:00,
2013-07-15 21:37:00,71.0,67.9,30.34,ENE,67,0.0,15.0,90,0.00,,,0.01,Wunderground v.1.15,2013-07-16 01:37:00,
2013-07-15 21:42:00,70.8,68.4,30.34,ENE,67,0.0,15.0,92,0.00,,,0.01,Wunderground v.1.15,2013-07-16 01:42:00,
2013-07-15 21:47:00,70.3,67.9,30.34,NW,326,1.0,15.0,92,0.00,,,0.01,Wunderground v.1.15,2013-07-16 01:47:00,
2013-07-15 21:53:00,69.8,67.7,30.34,NW,317,1.0,15.0,93,0.00,,,0.01,Wunderground v.1.15,2013-07-16 01:53:00,
2013-07-15 21:59:00,69.5,67.4,30.34,NW,317,1.0,15.0,93,0.00,,,0.01,Wunderground v.1.15,2013-07-16 01:59:00,
2013-07-15 22:04:00,69.2,67.4,30.35,NW,317,1.0,15.0,94,0.00,,,0.01,Wunderground v.1.15,2013-07-16 02:04:00,
2013-07-15 22:09:00,69.0,67.5,30.35,NW,317,0.0,15.0,95,0.00,,,0.01,Wunderground v.1.15,2013-07-16 02:09:00,
2013-07-15 22:15:00,68.9,67.4,30.35,NW,317,0.0,15.0,95,0.00,,,0.01,Wunderground v.1.15,2013-07-16 02:15:00,
2013-07-15 22:21:00,68.8,67.3,30.35,NW,317,0.0,15.0,95,0.00,,,0.01,Wunderground v.1.15,2013-07-16 02:21:00,
2013-07-15 22:26:00,68.6,67.1,30.35,NW,317,0.0,15.0,95,0.00,,,0.01,Wunderground v.1.15,2013-07-16 02:26:00,
2013-07-15 22:31:00,68.6,67.4,30.35,NW,317,0.0,15.0,96,0.00,,,0.01,Wunderground v.1.15,2013-07-16 02:31:00,
2013-07-15 22:36:00,68.5,67.3,30.36,NW,317,0.0,15.0,96,0.00,,,0.01,Wunderground v.1.15,2013-07-16 02:36:00,
2013-07-15 22:41:00,68.4,67.2,30.36,NW,317,0.0,15.0,96,0.00,,,0.01,Wunderground v.1.15,2013-07-16 02:41:00,
2013-07-15 22:47:00,68.1,66.9,30.36,NE,39,0.0,15.0,96,0.00,,,0.01,Wunderground v.1.15,2013-07-16 02:47:00,
2013-07-15 22:52:00,68.0,66.8,30.36,NE,39,1.0,15.0,96,0.00,,,0.01,Wunderground v.1.15,2013-07-16 02:52:00,
2013-07-15 22:57:00,67.9,67.0,30.35,NE,39,1.0,15.0,97,0.00,,,0.01,Wunderground v.1.15,2013-07-16 02:57:00,
2013-07-15 23:03:00,67.8,66.9,30.36,NE,39,1.0,1.0,97,0.00,,,0.01,Wunderground v.1.15,2013-07-16 03:03:00,
2013-07-15 23:08:00,67.6,66.4,30.36,NE,39,1.0,2.0,96,0.00,,,0.01,Wunderground v.1.15,2013-07-16 03:08:00,
2013-07-15 23:13:00,67.2,66.3,30.36,NE,36,1.0,1.0,97,0.00,,,0.01,Wunderground v.1.15,2013-07-16 03:13:00,
2013-07-15 23:18:00,67.2,66.3,30.36,NE,36,1.0,1.0,97,0.00,,,0.01,Wunderground v.1.15,2013-07-16 03:18:00,
2013-07-15 23:23:00,67.2,66.6,30.36,NE,36,0.0,1.0,98,0.00,,,0.01,Wunderground v.1.15,2013-07-16 03:23:00,
2013-07-15 23:29:00,67.3,66.7,30.37,NE,36,0.0,1.0,98,0.00,,,0.01,Wunderground v.1.15,2013-07-16 03:29:00,
2013-07-15 23:34:00,67.4,66.8,30.37,NE,36,0.0,1.0,98,0.00,,,0.01,Wunderground v.1.15,2013-07-16 03:34:00,
2013-07-15 23:39:00,67.4,66.8,30.37,NE,36,0.0,1.0,98,0.00,,,0.01,Wunderground v.1.15,2013-07-16 03:39:00,
2013-07-15 23:44:00,67.4,66.8,30.37,NE,36,0.0,1.0,98,0.00,,,0.01,Wunderground v.1.15,2013-07-16 03:44:00,
2013-07-15 23:49:00,67.4,66.8,30.37,West,267,0.0,2.0,98,0.00,,,0.01,Wunderground v.1.15,2013-07-16 03:49:00,
2013-07-15 23:55:00,67.4,66.8,30.37,West,267,1.0,1.0,98,0.00,,,0.01,Wunderground v.1.15,2013-07-16 03:55:00,